EW3001 Weather Reports


time (UTC)temp
C
wind
direction
speed
KPH
gust
KPH
rain 1hr
cm
rain 24hr
cm
rain mn
cm
humidity
%
barometer
mb
20260504234549 23 360 14.5 29.0 0.00 0.00 0.00 30 1003.8
20260504233048 24 360 17.7 48.3 0.00 0.00 0.00 30 1002.9
20260504231548 25 360 19.3 43.5 0.00 0.00 0.00 30 1002.4
20260504230049 25 360 29.0 49.9 0.00 0.00 0.00 29 1002.0
20260504224551 26 360 22.5 51.5 0.00 0.00 0.00 27 1001.7
20260504223107 26 360 33.8 53.1 0.00 0.00 0.00 26 1001.7
20260504221555 28 360 3.2 16.1 0.00 0.00 0.00 14 1001.7
20260504220056 28 0 0.0 14.5 0.00 0.00 0.00 14 1001.7
20260504214549 28 0 0.0 0.0 0.00 0.00 0.00 14 1001.7
20260504213055 28 0 6.4 17.7 0.00 0.00 0.00 14 1001.7
20260504211633 28 360 9.7 20.9 0.00 0.00 0.00 14 1001.8
20260504210053 29 360 14.5 25.7 0.00 0.00 0.00 14 1002.0
20260504204549 30 0 0.0 1.6 0.00 0.00 0.00 13 1001.9
20260504203046 30 360 4.8 43.5 0.00 0.00 0.00 13 1002.2
20260504201555 29 0 12.9 19.3 0.00 0.00 0.00 13 1002.4
20260504200052 29 360 14.5 22.5 0.00 0.00 0.00 13 1002.6
20260504194555 28 360 6.4 19.3 0.00 0.00 0.00 14 1002.8
20260504193056 28 0 1.6 16.1 0.00 0.00 0.00 14 1002.9
20260504191607 28 360 12.9 24.1 0.00 0.00 0.00 15 1003.0
20260504190104 28 0 0.0 3.2 0.00 0.00 0.00 15 1002.9
20260504184554 28 0 1.6 27.4 0.00 0.00 0.00 15 1003.1
20260504183049 28 360 11.3 24.1 0.00 0.00 0.00 15 1003.1
20260504181558 27 0 1.6 20.9 0.00 0.00 0.00 16 1003.5
20260504180046 27 0 0.0 14.5 0.00 0.00 0.00 17 1003.7
20260504174552 27 360 0.0 24.1 0.00 0.00 0.00 18 1003.8
20260504173055 27 360 12.9 22.5 0.00 0.00 0.00 19 1003.8
20260504171550 26 360 3.2 19.3 0.00 0.00 0.00 20 1003.9
20260504081554 7 0 0.0 0.0 0.00 0.00 0.00 70 1004.9
20260504050111 13 0 0.0 0.0 0.00 0.00 0.00 50 1007.0
20260504044555 15 0 0.0 0.0 0.00 0.00 0.00 45 1007.0
20260504043058 15 0 0.0 0.0 0.00 0.00 0.00 44 1006.9
20260504041551 16 0 0.0 0.0 0.00 0.00 0.00 43 1007.2
20260504040131 16 0 0.0 8.0 0.00 0.00 0.00 43 1007.5
20260504034556 16 0 0.0 8.0 0.00 0.00 0.00 42 1007.5
20260504033052 16 0 0.0 0.0 0.00 0.00 0.00 42 1007.4
20260504031601 17 0 0.0 1.6 0.00 0.00 0.00 40 1007.4
20260504030053 18 0 0.0 6.4 0.00 0.00 0.00 38 1007.6
20260504024553 18 0 0.0 0.0 0.00 0.00 0.00 37 1007.3
20260504023053 19 0 0.0 0.0 0.00 0.00 0.00 36 1007.3
20260504021548 20 0 0.0 0.0 0.00 0.00 0.00 35 1007.3
20260504020106 21 0 0.0 0.0 0.00 0.00 0.00 33 1007.3
20260504014554 21 0 0.0 1.6 0.00 0.00 0.00 32 1007.3
20260504013048 22 0 3.2 12.9 0.00 0.00 0.00 31 1007.0
20260504011544 22 0 0.0 8.0 0.00 0.00 0.00 29 1007.1
20260504010055 23 0 1.6 12.9 0.00 0.00 0.00 27 1007.3
20260504004551 23 360 0.0 16.1 0.00 0.00 0.00 26 1007.3
20260504003046 24 0 6.4 17.7 0.00 0.00 0.00 25 1007.5
20260504001553 25 360 6.4 19.3 0.00 0.00 0.00 24 1007.6
20260504000050 25 360 11.3 19.3 0.00 0.00 0.00 23 1007.3